Location: Del Amo
(33.8464°N, 118.2104°W)
Time: 17:42:23
(UTC+00:00)

Vanguard 2 Rocket - Pass Details

Date: 16 September 2024
Orbit: 553 x 3298 km, 32.9° (Epoch: 11 October)

Event Time Altitude Azimuth Distance (km) Brightness Sun altitude
Rises 07:39:38 0° 225° (SW) 3,693 - -53.7°
Reaches altitude 10° 07:41:54 10° 218° (SW) 2,996 - -53.7°
Maximum altitude 07:49:08 47° 147° (SSE) 2,043 - -53.7°
Exits shadow 07:58:16 18° 85° (E) 4,132 10.2 -53.7°
Drops below altitude 10° 08:01:38 10° 80° (E) 5,089 10.7 -53.6°
Sets 08:06:43 0° 75° (ENE) 6,507 11.4 -53.5°
